Terminal Aerodrome Forecast
Issued by NWS

Home | Current Version | Previous Version | Text Only | Print | Product List | Glossary On
Versions: 1 2 3 4 5 6 7 8 9 10 11 12 13 14 15 16 17 18 19
816
FTUS45 KABQ 301129
TAFTCC
TAF
KTCC 301129Z 3012/0112 31015G25KT P6SM VCSH OVC050
     FM301500 28015G25KT P6SM BKN080
     FM301800 25012G22KT P6SM FEW080
     FM302200 29008KT P6SM FEW250=

USA.gov is the U.S. government's official web portal to all federal, state and local government web resources and services.